Location: Frydek-Mistek
(49.6830°N, 18.3330°E)
Time: 04:38:57
(UTC+02:00)

ISS - Pass Details

Date: 26 May 2021
Orbit: 417 x 422 km, 51.6° (Epoch: 13 June)

Event Time Altitude Azimuth Distance (km) Brightness Sun altitude
Rises 21:25:18 0° 285° (WNW) 2,366 1.3 -6.5°
Reaches altitude 10° 21:27:24 10° 287° (WNW) 1,502 0.2 -6.8°
Maximum altitude 21:30:46 77° 14° (NNE) 435 -3.6 -7.2°
Drops below altitude 10° 21:34:08 10° 101° (E) 1,501 -1.4 -7.6°
Enters shadow 21:34:51 - 102° (ESE) 1,788 -1.1 -7.6°
